Карточка аэропорта UAKK

Внимание!
Информация на этой странице в стадии наполнения.
Если вы не увидели какой-то информации, или заметили неточность - пожалуйста сообщите нам!
Спасибо!
Команда RU-STAFF
Название аэропортаКараганда
Название аэропорта (англ.)Karaganda
Превышение1768 ft. (538.9 m.)
Координаты49°40.302', 73°20.118'
Высота перехода10000
Эшелон переходаby ATC
Коды ответчика0630-0637, 7220-7227
Зона ОрВДАстана РПИ (UACN)
Данные METARUAKK 211030Z 06009MPS CAVOK 22/07 Q1025 NOSIG RMK QFE721/0961
Проноз погоды (TAF)UAKK 210501Z 2106/2206 08007MPS 9999 SCT040 SCT100 TX22/2109Z TN04/2201Z TEMPO 2106/2114 03007G12MPS BECMG 2114/2116 VRB02MPS TEMPO 2116/2203 08003MPS BECMG 2203/2205 04005MPS
NOTAMshow/hide NOTAM
AWOS   TABLE

Информация о ВПП

ВПП Длина ВПП (м.) Покрытие Курс ВПП Частота ILS
053601Железобетон50109.9
233601Железобетон230111.7

Диспетчерские позиции




Спутниковое изображение